Tracking 30703 objects as of 12-Jun-2025
HD Live streaming from Space Station
objects crossing your sky now

XSS 10

Track XSS 10 now!
10-day predictions
XSS 10 is classified as:


NORAD ID: 27664
Int'l Code: 2003-005B
Perigee: 503.7 km
Apogee: 720.2 km
Inclination: 39.7 °
Period: 96.8 minutes
Semi major axis: 6982 km
RCS: 0.183 m2 (medium)
Launch date: January 29, 2003
Source: United States (US)
Launch site: AIR FORCE EASTERN TEST RANGE (AFETR)
Your satellite tracking list
Your tracking list is empty




NASA's NSSDC Master Catalog

Two Line Element Set (TLE):
1 27664U 03005B   25162.90885045  .00001001  00000-0  99914-4 0  9996
2 27664  39.7489   0.8269 0155086 339.8659  19.6055 14.87799613207572
Source of the keplerian elements: AFSPC